Location: Banff
(51.1667°N, 115.5667°W)
Time: 10:15:38
(UTC+00:00)

A-11 Canister half - Pass Details

Date: 30 November 2020
Orbit: 1524 x 1684 km, 47.3° (Epoch: 20 January)

Event Time Altitude Azimuth Distance (km) Brightness Sun altitude
Exits shadow 12:18:13 - 207° (SSW) 4,895 11.4 -28.1°
Reaches altitude 10° 12:21:41 10° 198° (SSW) 3,941 11.0 -27.6°
Maximum altitude 12:30:19 33° 140° (SE) 2,534 10.4 -26.2°
Drops below altitude 10° 12:38:50 10° 81° (E) 3,903 12.1 -24.9°
Sets 12:42:20 0° 72° (ENE) 4,872 12.7 -24.3°
